This is the latest recevied weather packets stored in our database for station/object DG6YGE-6. If no packets are shown the sender has not sent any weather packets the latest 1 day(s).
| Time | Temp. | Humidity | Pressure | Rain* | Wind** | Luminosity | Snow |
|---|---|---|---|---|---|---|---|
| 1836274323 | 12.22° C | 91% | 1016.6 hPa | 0 mm | 0.89 m/s, 125° | 0 W/m² | - |
| 1836274173 | 12.78° C | 91% | 1016.7 hPa | 0 mm | 1.34 m/s, 126° | 0 W/m² | - |
| 1778014752 | 11.11° C | 93% | 1006.5 hPa | 0 mm | 1.79 m/s, 163° | 0 W/m² | - |
| 1778014152 | 11.11° C | 93% | 1006.6 hPa | 0 mm | 1.34 m/s, 299° | 0 W/m² | - |
| 1778013552 | 11.11° C | 93% | 1006.7 hPa | 0 mm | 1.79 m/s, 360° | 0 W/m² | - |
| 1778012952 | 11.11° C | 93% | 1006.6 hPa | 0 mm | 1.79 m/s, 360° | 0 W/m² | - |
| 1778012352 | 11.11° C | 93% | 1006.6 hPa | 0 mm | 1.34 m/s, 315° | 0 W/m² | - |
| 1778011752 | 11.11° C | 93% | 1006.6 hPa | 0 mm | 1.34 m/s, 149° | 0 W/m² | - |
| 1778011152 | 11.11° C | 93% | 1006.5 hPa | 0 mm | 1.34 m/s, 209° | 0 W/m² | - |
| 1778010552 | 11.11° C | 93% | 1006.5 hPa | 0 mm | 1.34 m/s, 189° | 0 W/m² | - |
| 1778009952 | 11.11° C | 93% | 1006.5 hPa | 0 mm | 1.79 m/s, 180° | 0 W/m² | - |
| 1778009352 | 11.11° C | 93% | 1006.6 hPa | 0 mm | 1.34 m/s, 227° | 0 W/m² | - |
| 1778008752 | 11.67° C | 93% | 1006.4 hPa | 0 mm | 1.34 m/s, 292° | 0 W/m² | - |
| 1778008152 | 11.67° C | 93% | 1006.4 hPa | 0 mm | 1.34 m/s, 294° | 0 W/m² | - |
| 1778007552 | 11.67° C | 93% | 1006.4 hPa | 0 mm | 1.34 m/s, 228° | 0 W/m² | - |
| 1778006952 | 11.67° C | 93% | 1006.5 hPa | 0 mm | 1.34 m/s, 189° | 0 W/m² | - |
| 1778006352 | 11.67° C | 93% | 1006.6 hPa | 0 mm | 1.34 m/s, 91° | 0 W/m² | - |
| 1778005752 | 11.67° C | 93% | 1006.5 hPa | 0 mm | 1.79 m/s, 271° | 3 W/m² | - |
| 1778005152 | 11.67° C | 93% | 1006.5 hPa | 0 mm | 1.79 m/s, 213° | 5 W/m² | - |
| 1778004552 | 11.67° C | 92% | 1006.6 hPa | 0 mm | 1.34 m/s, 251° | 6 W/m² | - |
| 1778003952 | 11.67° C | 92% | 1006.6 hPa | 0 mm | 1.79 m/s, 329° | 8 W/m² | - |
| 1778003352 | 11.67° C | 92% | 1006.6 hPa | 0 mm | 0.89 m/s, 186° | 10 W/m² | - |
| 1778002752 | 11.67° C | 92% | 1006.8 hPa | 0 mm | 1.34 m/s, 261° | 12 W/m² | - |
| 1778002152 | 11.67° C | 92% | 1006.7 hPa | 0 mm | 0.89 m/s, 155° | 13 W/m² | - |
| 1778001552 | 11.67° C | 92% | 1006.7 hPa | 0 mm | 1.79 m/s, 96° | 17 W/m² | - |
* Rain latest hour (hover to see other rain measurements)
** Current wind speed in m/s (hover to see current wind gust speed)